Showing default

NOAA 20, 43013

Orbit data source: Space-Track

NOAA 20, 43013 is an American payload satellite in SSO that was launched on Sat, 18 Nov 2017 UTC via a DELTA 7920-10C launch vehicle from the Air Force Western Test Range (AFWTR). Payload-class satellites include a variety of spacecraft equipped with specific instruments for various scientific and technological missions. These include communications satellites like Starlink; space stations such as the ISS; scientific satellites like the Hubble; Earth observation satellites from companies like Planet Labs, Umbra, and HawkEye 360; GPS; miniature CubeSats for education and research; and military/defense satellites.

Loading next visibility...
Identifier
43013, 2017-073A
Orbit
SSO
Country
Flag of USUS
Related business
Manufacturer
Ball
Mission
Operational Civil Weather
Bus & Motor
BCP-2000, AOCS
Mass
2,220 kg wet, ~1,400 kg dry
Launch date (UTC)
2017-11-18 (8 years ago)
Launch vehicle
DELTA 7920-10C
Launch site
Air Force Western Test Range (AFWTR)
Object type
Payload
Rocket body
Debris
Shape & HBR
Box + 1 Pan, 5.4 m
Radar Cross Section
8.434 m², Large (>1 m²)

Expand to show TLE details & history
Last TLE update: 7 hours ago

TLE from 7 hours ago
0 NOAA 20
1 43013U 17073A   26035.13636698  .00000099  00000-0  67771-4 0  9997
2 43013  98.7657 335.8650 0000495  15.2022 344.9169 14.19526744425599
Epoch: 2026-02-04T03:16Z
TLE epoch observation values (Epoch: 2026-02-04T03:16:22.107Z)
Latitude
0.00002°
Longitude
152.46561°
Altitude
829.521 km
Speed
7.438 km/s
True Right ascension
22h 23m 27s
True Declination
0° 00' 00"
Sunlit
Object was in daylight at epoch
Visualization orbit readout
Latitude
Unknown
Longitude
Unknown
Altitude
Unknown
Speed
Unknown
Apparent Right ascension
Unknown
Apparent Declination
Unknown
Sunlit
N/A
Visualization observer readout
Local Sidereal Time
11:46:03
Azimuth
Unknown
Elevation
Unknown
Doppler factor
Unknown
Orbital elements
Apogee altitude
824.472 km
Perigee altitude
823.759 km
Semi-major axis
7,202.253 km
Eccentricity
0.00005
Inclination
98.7657°
RAAN
335.865°
Arg. of periapsis
15.2022°
True anomaly
344.91542°
Mean anomaly
344.9169°
Eccentric anomaly
344.91616°
Mean motion
3.55092 °/min
Orbital period
101.38 mins
BSTAR
0.000067771
Loading maneuver chart data...
Computing Atmospheric mass density...
Loading historical data...
Loading historical data...
Loading historical data...
Loading historical data...
Loading historical data...
Loading historical data...
Loading historical data...

Documentation

Showing up to 5 results
|